KM4KMO-14 Weather Reports


Display with metric or nautical units.
time (UTC)temp
F
wind
direction
speed
MPH
gust
MPH
rain 1hr
in
rain 24hr
in
rain mn
in
humidity
%
barometer
mb
20260506024214 71 238 0.0 2.0 0.00 0.00 0.00 62 1009.1
20260506022714 71 197 1.0 4.0 0.00 0.00 0.00 61 1008.6
20260506015714 71 214 1.0 2.0 0.00 0.00 0.00 62 1008.2
20260506014214 70 223 0.0 2.0 0.00 0.00 0.00 62 1008.1
20260506012715 70 254 0.0 1.0 0.00 0.00 0.00 61 1008.0
20260506011215 70 246 0.0 0.0 0.00 0.00 0.00 60 1007.9
20260506005715 70 246 0.0 0.0 0.00 0.00 0.00 60 1007.7
20260506004215 70 249 0.0 0.0 0.00 0.00 0.00 60 1007.7
20260506001215 70 249 0.0 0.0 0.00 0.00 0.00 61 1008.0
20260505235715 69 249 0.0 0.0 0.00 0.00 0.00 61 1008.1
20260505232715 71 248 0.0 6.0 0.00 0.00 0.00 65 1008.1
20260505231215 71 243 0.0 1.0 0.00 0.00 0.00 63 1008.1
20260505225715 71 234 0.0 1.0 0.00 0.00 0.00 60 1008.0
20260505224215 70 242 0.0 1.0 0.00 0.00 0.00 59 1008.0
20260505221215 71 244 0.0 1.0 0.00 0.00 0.00 60 1008.0
20260505214215 71 252 0.0 1.0 0.00 0.00 0.00 59 1007.9
20260505205715 75 189 1.0 2.0 0.00 0.00 0.00 47 1008.5
20260505204215 76 202 2.0 5.0 0.00 0.00 0.00 44 1008.6
20260505202715 77 254 1.0 4.0 0.00 0.00 0.00 51 1008.7
20260505201215 79 226 2.0 4.0 0.00 0.00 0.00 49 1009.0
20260505195715 81 206 2.0 6.0 0.00 0.00 0.00 48 1009.2
20260505194215 80 240 3.0 7.0 0.00 0.00 0.00 47 1009.1
20260505192716 79 144 1.0 4.0 0.00 0.00 0.00 44 1009.4
20260505191219 79 228 2.0 7.0 0.00 0.00 0.00 45 1009.6
20260505185716 79 168 2.0 4.0 0.00 0.00 0.00 43 1009.6
20260505184216 79 243 2.0 6.0 0.00 0.00 0.00 45 1009.8
20260505182716 79 222 2.0 4.0 0.00 0.00 0.00 46 1009.9
20260505181218 79 246 1.0 6.0 0.00 0.00 0.00 50 1010.4
20260505175716 78 135 2.0 4.0 0.00 0.00 0.00 49 1010.3
20260505174216 78 219 1.0 5.0 0.00 0.00 0.00 51 1010.4
20260505172716 77 113 1.0 3.0 0.00 0.00 0.00 53 1010.8
20260505171216 76 188 2.0 6.0 0.00 0.00 0.00 54 1011.2
20260505165716 77 220 1.0 5.0 0.00 0.00 0.00 54 1011.5
20260505164219 75 218 2.0 5.0 0.00 0.00 0.00 55 1011.6
20260505162717 75 213 1.0 4.0 0.00 0.00 0.00 56 1011.6
20260505161216 75 231 0.0 1.0 0.00 0.00 0.00 60 1011.4
20260505152716 71 198 1.0 2.0 0.00 0.00 0.00 64 1011.9
20260505151217 70 267 1.0 4.0 0.00 0.00 0.00 66 1012.1
20260505124217 58 200 0.0 0.0 0.00 0.00 0.00 81 1011.7
20260505121217 56 200 0.0 0.0 0.00 0.00 0.00 82 1011.3
20260505114217 54 200 0.0 0.0 0.00 0.00 0.00 84 1011.1
20260505112717 54 200 0.0 0.0 0.00 0.00 0.00 84 1010.9
20260505111217 53 200 0.0 0.0 0.00 0.00 0.00 84 1010.8
20260505101217 53 200 0.0 0.0 0.00 0.00 0.00 85 1010.3
20260505095717 54 200 0.0 0.0 0.00 0.00 0.00 83 1010.0
20260505094217 54 200 0.0 0.0 0.00 0.00 0.00 82 1009.9
20260505092717 55 200 0.0 0.0 0.00 0.00 0.00 82 1010.1
20260505091217 55 200 0.0 0.0 0.00 0.00 0.00 81 1010.1
20260505084217 56 200 0.0 0.0 0.00 0.00 0.00 79 1010.0
20260505082717 56 200 0.0 1.0 0.00 0.00 0.00 79 1010.2
20260505081217 56 227 0.0 0.0 0.00 0.00 0.00 79 1010.3
20260505072717 56 227 0.0 0.0 0.00 0.00 0.00 80 1010.3
20260505071217 56 227 0.0 0.0 0.00 0.00 0.00 80 1010.4
20260505065717 56 227 0.0 0.0 0.00 0.00 0.00 80 1010.3
20260505064218 57 227 0.0 0.0 0.00 0.00 0.00 79 1010.4
20260505062718 57 227 0.0 0.0 0.00 0.00 0.00 78 1010.5
20260505055718 58 227 0.0 0.0 0.00 0.00 0.00 75 1010.5
20260505041217 61 146 0.0 0.0 0.00 0.00 0.00 69 1010.5
20260505035717 61 146 0.0 0.0 0.00 0.00 0.00 69 1010.5
20260505032717 62 146 0.0 0.0 0.00 0.00 0.00 67 1010.5
20260505031217 63 146 0.0 0.0 0.00 0.00 0.00 65 1010.4
20260505025717 64 146 0.0 0.0 0.00 0.00 0.00 62 1010.5